This is the latest recevied weather packets stored in our database for station/object W4GAP. If no packets are shown the sender has not sent any weather packets the latest 10 day(s).
| Time | Temp. | Humidity | Pressure | Rain* | Wind** | Luminosity | Snow |
|---|---|---|---|---|---|---|---|
| 1777552459 | 15.56° C | 98% | 1007.9 hPa | 0 mm | - | 29 W/m² | - |
| 1777552156 | 15° C | 98% | 1007.9 hPa | 0 mm | - | 30 W/m² | - |
| 1777551852 | 15° C | 98% | 1007.9 hPa | 0 mm | - | 37 W/m² | - |
| 1777551550 | 15° C | 98% | 1007.4 hPa | 0 mm | - | 22 W/m² | - |
| 1777551247 | 15° C | 98% | 1007.4 hPa | 0 mm | - | 23 W/m² | - |
| 1777550944 | 15° C | 98% | 1007.6 hPa | 0 mm | - | 12 W/m² | - |
| 1777550641 | 15° C | 98% | 1007.6 hPa | 0 mm | - | 12 W/m² | - |
| 1777550336 | 15° C | 98% | 1007.7 hPa | 0 mm | - | 9 W/m² | - |
| 1777550032 | 15° C | 98% | 1007.2 hPa | 0 mm | - | 12 W/m² | - |
| 1777549730 | 15° C | 98% | 1006.2 hPa | 0 mm | - | 17 W/m² | - |
| 1777549424 | 15° C | 98% | 1006.1 hPa | 0 mm | - | 13 W/m² | - |
| 1777549121 | 15° C | 98% | 1006.6 hPa | 0 mm | - | 3 W/m² | - |
| 1777548817 | 15° C | 98% | 1006.5 hPa | 0 mm | - | 3 W/m² | - |
| 1777548515 | 15° C | 98% | 1006.9 hPa | 0 mm | - | 3 W/m² | - |
| 1777548212 | 15° C | 98% | 1006.9 hPa | 0 mm | - | 4 W/m² | - |
| 1777547908 | 15° C | 98% | 1006.9 hPa | 0 mm | - | 1 W/m² | - |
| 1777547604 | 15° C | 98% | 1007 hPa | 0 mm | - | 0 W/m² | - |
| 1777547301 | 15° C | 98% | 1007.1 hPa | 0 mm | - | 0 W/m² | - |
| 1777546998 | 15° C | 98% | 1007.1 hPa | 0 mm | - | 0 W/m² | - |
| 1777546696 | 15° C | 98% | 1007.5 hPa | 0 mm | - | 0 W/m² | - |
| 1777546392 | 15° C | 98% | 1007.2 hPa | 0 mm | - | 0 W/m² | - |
| 1777546089 | 15° C | 98% | 1007.1 hPa | 0 mm | - | 0 W/m² | - |
| 1777545785 | 15° C | 98% | 1007 hPa | 0 mm | - | 0 W/m² | - |
| 1777545482 | 15° C | 98% | 1006.9 hPa | 0 mm | - | 0 W/m² | - |
| 1777545179 | 15° C | 98% | 1006.8 hPa | 0 mm | - | 0 W/m² | - |
* Rain latest hour (hover to see other rain measurements)
** Current wind speed in m/s (hover to see current wind gust speed)